When you browse on this site, cookies collect data to enhance your experience and personalize the content and advertising you see.
Visit our Privacy Policy to learn more. By continuing to use the site, you agree to this use of cookies and data.
  • Em Portugal
  • Lista de países
  • Para 7 dias
  • Temperatura da água
  • Mapas de satélite
  • Mapa do tempo
  • Widgets de tempo
  • user-avatar
    Iniciar Sessão

    Previsão horária em Nemkovo

    Hoje, 19 Julho, Sexta-feira

    Tempo Temperatura Precipitação Vento Pressão Humidade
    00:00 +14°C° 0.3 mm 1 m/s 733 mmHg 99%
    01:00 +14°C° 0.3 mm 1 m/s 733 mmHg 99%
    02:00 +14°C° 0 mm 1 m/s 734 mmHg 97%
    03:00 +14°C° 0.1 mm 1 m/s 734 mmHg 98%
    04:00 +14°C° 0.1 mm 1 m/s 734 mmHg 98%
    05:00 +14°C° 0.1 mm 1 m/s 734 mmHg 98%
    06:00 +15°C° 0.4 mm 2 m/s 735 mmHg 98%
    07:00 +15°C° 0.4 mm 2 m/s 735 mmHg 97%
    08:00 +15°C° 0 mm 2 m/s 735 mmHg 98%
    09:00 +16°C° 0.9 mm 3 m/s 735 mmHg 97%
    10:00 +16°C° 0.9 mm 3 m/s 735 mmHg 96%
    11:00 +17°C° 0.9 mm 4 m/s 735 mmHg 95%
    12:00 +17°C° 0.8 mm 4 m/s 735 mmHg 94%
    13:00 +16°C° 0.8 mm 5 m/s 735 mmHg 93%
    14:00 +17°C° 0 mm 4 m/s 736 mmHg 92%
    15:00 +17°C° 0.2 mm 4 m/s 736 mmHg 91%
    16:00 +17°C° 0.2 mm 4 m/s 736 mmHg 90%
    17:00 +16°C° 0.2 mm 5 m/s 736 mmHg 89%
    18:00 +17°C° 0.2 mm 4 m/s 736 mmHg 91%
    19:00 +15°C° 0.2 mm 4 m/s 736 mmHg 93%
    20:00 +14°C° 0.2 mm 3 m/s 737 mmHg 95%
    21:00 +14°C° 0.1 mm 3 m/s 737 mmHg 96%
    22:00 +14°C° 0.1 mm 3 m/s 737 mmHg 96%
    23:00 +14°C° 0.1 mm 3 m/s 737 mmHg 97%

    Amanhã, 20 Julho, Sábado

    Tempo Temperatura Precipitação Vento Pressão Humidade
    00:00 +14°C° 0.2 mm 3 m/s 737 mmHg 97%
    01:00 +14°C° 0.2 mm 4 m/s 738 mmHg 97%
    02:00 +14°C° 0.2 mm 4 m/s 738 mmHg 97%
    03:00 +14°C° 0.2 mm 4 m/s 738 mmHg 97%
    04:00 +14°C° 0.2 mm 3 m/s 739 mmHg 97%
    05:00 +14°C° 0.2 mm 3 m/s 739 mmHg 97%
    06:00 +14°C° 0.1 mm 3 m/s 739 mmHg 97%
    07:00 +14°C° 0.1 mm 3 m/s 739 mmHg 97%
    08:00 +14°C° 0.1 mm 3 m/s 740 mmHg 97%
    09:00 +16°C° 0.1 mm 3 m/s 740 mmHg 95%
    10:00 +16°C° 0.1 mm 3 m/s 740 mmHg 94%
    11:00 +17°C° 0.1 mm 3 m/s 741 mmHg 92%
    12:00 +18°C° 0.5 mm 3 m/s 741 mmHg 90%
    13:00 +18°C° 0.5 mm 3 m/s 741 mmHg 89%
    14:00 +19°C° 0.5 mm 4 m/s 741 mmHg 87%
    15:00 +20°C° 0.5 mm 3 m/s 741 mmHg 85%
    16:00 +20°C° 0.5 mm 3 m/s 742 mmHg 83%
    17:00 +20°C° 0.5 mm 3 m/s 742 mmHg 81%
    18:00 +19°C° 0.1 mm 2 m/s 742 mmHg 84%
    19:00 +18°C° 0.1 mm 2 m/s 742 mmHg 87%
    20:00 +16°C° 0.1 mm 1 m/s 742 mmHg 90%
    21:00 +15°C° 0 mm 1 m/s 742 mmHg 91%
    22:00 +15°C° 0 mm 1 m/s 742 mmHg 93%
    23:00 +14°C° 0 mm 1 m/s 743 mmHg 94%

    Depois de amanhã, 21 Julho, Domingo

    Tempo Temperatura Precipitação Vento Pressão Humidade
    00:00 +13°C° 0 mm 1 m/s 743 mmHg 95%
    01:00 +13°C° 0 mm 1 m/s 743 mmHg 96%
    02:00 +13°C° 0 mm 1 m/s 743 mmHg 97%
    03:00 +13°C° 0 mm 1 m/s 743 mmHg 97%
    04:00 +13°C° 0 mm 1 m/s 743 mmHg 97%
    05:00 +13°C° 0 mm 1 m/s 744 mmHg 98%
    06:00 +15°C° 0 mm 1 m/s 744 mmHg 92%
    07:00 +18°C° 0 mm 1 m/s 744 mmHg 86%
    08:00 +19°C° 0 mm 1 m/s 744 mmHg 81%
    09:00 +21°C° 0.1 mm 1 m/s 744 mmHg 74%
    10:00 +21°C° 0.1 mm 2 m/s 744 mmHg 68%
    11:00 +23°C° 0.1 mm 2 m/s 744 mmHg 61%
    12:00 +23°C° 0.5 mm 2 m/s 744 mmHg 63%
    13:00 +23°C° 0.5 mm 2 m/s 744 mmHg 65%
    14:00 +24°C° 0.5 mm 2 m/s 744 mmHg 67%
    15:00 +23°C° 0.6 mm 1 m/s 743 mmHg 70%
    16:00 +23°C° 0.6 mm 1 m/s 743 mmHg 73%
    17:00 +23°C° 0.6 mm 1 m/s 743 mmHg 76%
    18:00 +21°C° 0.1 mm 1 m/s 743 mmHg 80%
    19:00 +18°C° 0.1 mm 0 m/s 743 mmHg 83%
    20:00 +16°C° 0.1 mm 0 m/s 743 mmHg 86%
    21:00 +15°C° 0 mm 0 m/s 743 mmHg 88%
    22:00 +14°C° 0 mm 0 m/s 743 mmHg 89%
    23:00 +14°C° 0 mm 0 m/s 743 mmHg 91%

    22 Julho, Segunda-feira

    Tempo Temperatura Precipitação Vento Pressão Humidade
    00:00 +13°C° 0 mm 0 m/s 743 mmHg 91%
    01:00 +13°C° 0 mm 0 m/s 743 mmHg 92%
    02:00 +13°C° 0 mm 1 m/s 743 mmHg 92%
    03:00 +14°C° 0 mm 1 m/s 743 mmHg 92%
    04:00 +14°C° 0 mm 1 m/s 743 mmHg 92%
    05:00 +14°C° 0 mm 1 m/s 743 mmHg 92%
    06:00 +16°C° 0 mm 1 m/s 742 mmHg 88%
    07:00 +18°C° 0 mm 1 m/s 742 mmHg 83%
    08:00 +20°C° 0 mm 1 m/s 742 mmHg 79%
    09:00 +21°C° 0 mm 1 m/s 742 mmHg 71%
    10:00 +23°C° 0 mm 1 m/s 742 mmHg 62%
    11:00 +24°C° 0 mm 1 m/s 742 mmHg 54%
    12:00 +25°C° 0 mm 2 m/s 742 mmHg 52%
    13:00 +25°C° 0 mm 2 m/s 742 mmHg 49%
    14:00 +26°C° 0 mm 2 m/s 742 mmHg 47%
    15:00 +25°C° 0.1 mm 2 m/s 741 mmHg 54%
    16:00 +24°C° 0.1 mm 1 m/s 741 mmHg 62%
    17:00 +23°C° 0.1 mm 1 m/s 741 mmHg 69%
    18:00 +21°C° 0 mm 1 m/s 741 mmHg 75%
    19:00 +20°C° 0 mm 1 m/s 740 mmHg 81%
    20:00 +19°C° 0 mm 1 m/s 740 mmHg 87%
    21:00 +18°C° 0 mm 1 m/s 740 mmHg 88%
    22:00 +16°C° 0 mm 1 m/s 740 mmHg 88%
    23:00 +15°C° 0 mm 1 m/s 740 mmHg 89%

    23 Julho, Terça-feira

    Tempo Temperatura Precipitação Vento Pressão Humidade
    00:00 +15°C° 0 mm 1 m/s 740 mmHg 89%
    01:00 +15°C° 0 mm 1 m/s 740 mmHg 88%
    02:00 +14°C° 0 mm 2 m/s 740 mmHg 87%
    03:00 +14°C° 0 mm 2 m/s 740 mmHg 88%
    04:00 +14°C° 0 mm 2 m/s 740 mmHg 88%
    05:00 +14°C° 0 mm 2 m/s 740 mmHg 89%
    06:00 +16°C° 0 mm 2 m/s 740 mmHg 82%
    07:00 +18°C° 0 mm 2 m/s 740 mmHg 76%
    08:00 +20°C° 0 mm 2 m/s 740 mmHg 70%
    09:00 +23°C° 0.1 mm 2 m/s 740 mmHg 62%
    10:00 +24°C° 0.1 mm 2 m/s 740 mmHg 55%
    11:00 +25°C° 0.1 mm 3 m/s 740 mmHg 48%
    12:00 +25°C° 0 mm 3 m/s 740 mmHg 49%
    13:00 +25°C° 0 mm 3 m/s 740 mmHg 51%
    14:00 +25°C° 0 mm 3 m/s 740 mmHg 52%
    15:00 +24°C° 0.2 mm 3 m/s 740 mmHg 58%
    16:00 +24°C° 0.2 mm 3 m/s 740 mmHg 64%
    17:00 +22°C° 0.2 mm 3 m/s 740 mmHg 69%
    18:00 +20°C° 0.2 mm 2 m/s 740 mmHg 76%
    19:00 +19°C° 0.2 mm 2 m/s 740 mmHg 82%
    20:00 +17°C° 0.2 mm 2 m/s 740 mmHg 88%
    21:00 +16°C° 0 mm 1 m/s 740 mmHg 89%
    22:00 +16°C° 0 mm 1 m/s 740 mmHg 90%
    23:00 +15°C° 0 mm 1 m/s 740 mmHg 91%

    24 Julho, Quarta-feira

    Tempo Temperatura Precipitação Vento Pressão Humidade
    00:00 +14°C° 0 mm 1 m/s 740 mmHg 92%
    01:00 +14°C° 0 mm 1 m/s 740 mmHg 93%
    02:00 +14°C° 0 mm 1 m/s 740 mmHg 93%
    03:00 +14°C° 0 mm 1 m/s 740 mmHg 93%
    04:00 +14°C° 0 mm 1 m/s 740 mmHg 93%
    05:00 +14°C° 0 mm 1 m/s 740 mmHg 93%
    06:00 +16°C° 0 mm 1 m/s 740 mmHg 85%
    07:00 +18°C° 0 mm 1 m/s 741 mmHg 77%
    08:00 +20°C° 0 mm 1 m/s 741 mmHg 70%
    09:00 +22°C° 0 mm 1 m/s 741 mmHg 62%
    10:00 +23°C° 0 mm 2 m/s 741 mmHg 55%
    11:00 +25°C° 0 mm 2 m/s 741 mmHg 47%
    12:00 +25°C° 0 mm 2 m/s 741 mmHg 45%
    13:00 +25°C° 0 mm 2 m/s 741 mmHg 43%
    14:00 +26°C° 0 mm 2 m/s 740 mmHg 41%
    15:00 +25°C° 0 mm 2 m/s 740 mmHg 45%
    16:00 +25°C° 0 mm 2 m/s 740 mmHg 48%
    17:00 +24°C° 0 mm 2 m/s 740 mmHg 52%
    18:00 +21°C° 0 mm 2 m/s 740 mmHg 60%
    19:00 +20°C° 0 mm 1 m/s 740 mmHg 68%
    20:00 +16°C° 0 mm 0 m/s 740 mmHg 76%
    21:00 +16°C° 0 mm 0 m/s 740 mmHg 78%
    22:00 +16°C° 0 mm 1 m/s 740 mmHg 80%
    23:00 +16°C° 0 mm 1 m/s 740 mmHg 82%
    Mostrar mais